Wind_Gust
8 9 4 10 12 12 7 9 5 4 10 6 7 8 5 5 5 6 6 5 6 12 10 10 17 13 10 11 14 15 11 18 17 17 15 11 13 11 9 9 10 11 11 7 12 11 12 12 12 10 10 11 13 13 14 15 17 17 18 18 19 17 17 16 17 17 16 14 16 14 15 12 13 12 10 12 12 13 11 9 10 10 11 10 8 8
13 11 5 10 10 8 5 5 7 12 10 9 8 7 5 3 3 4 3 3 6 11 10 11 12 10 12 11 13 13 13 9 16 17 17 15 11 9 11 10 11 10 7 10 11 10 9 13 12 11 12 12 16 14 13 15 14 15 17 18 17 17 17 17 15 14 13 12 16 12 13 13 14 11 12 13 15 16 15 16 10 7 6 6 8 9
11 11 8 8 5 8 13 14 12 9 11 10 9 5 7 8 5 8 3 7 8 12 5 6 12 9 13 18 14 13 12 10 11 15 17 18 11 10 10 11 10 11 9 7 7 7 11 12 11 11 11 11 10 10 12 11 14 15 17 17 17 18 16 15 16 15 15 12 12 11 12 14 13 11 11 11 11 12 12 12 14 10 9 8 8 6
9 6 7 4 15 16 15 11 11 12 10 9 7 8 4 6 5 7 8 5 9 9 12 7 14 3 8 10 15 14 13 15 13 13 13 15 16 13 12 12 13 10 9 7 7 8 10 10 10 10 11 10 11 12 12 13 14 15 16 15 18 18 17 16 15 15 13 13 12 12 16 12 14 11 10 12 13 11 14 13 14 18 9 9 8 8
11 6 3 9 13 16 12 10 12 11 9 6 2 3 2 2 4 9 6 7 6 10 9 13 12 6 9 7 11 16 18 14 14 14 14 13 13 10 9 8 9 13 10 9 9 10 10 11 9 7 8 10 12 10 11 12 13 14 15 14 14 16 16 16 15 14 13 14 15 13 13 7 13 14 10 12 11 12 12 14 12 15 10 10 8 8
5 6 4 10 12 11 14 10 5 9 10 11 7 7 4 4 3 4 3 8 9 6 7 5 6 8 8 8 7 15 10 14 13 11 12 15 13 11 10 9 8 9 6 11 8 6 6 7 8 10 11 11 10 11 9 9 11 12 16 16 15 15 17 17 14 14 14 13 14 15 16 14 11 11 11 10 12 11 12 12 10 12 14 11 12 11
5 7 7 10 14 10 10 8 2 6 6 6 8 6 6 5 4 6 4 8 5 6 7 3 10 11 8 4 6 12 11 12 19 16 7 10 10 10 13 10 11 12 9 7 8 6 8 7 9 10 9 9 11 9 10 12 12 14 14 14 15 15 13 15 14 13 13 14 14 13 13 10 11 9 9 10 9 10 8 9 8 12 14 14 15 13
4 7 10 9 11 10 10 12 5 7 10 8 8 5 4 4 5 6 9 7 7 3 5 11 8 11 6 9 4 7 6 9 11 12 10 9 9 13 10 9 9 10 8 8 7 7 7 8 8 8 7 8 9 8 11 11 11 12 11 11 13 14 16 14 15 13 13 13 12 14 13 12 11 11 11 14 10 12 8 10 10 9 10 13 13 11
3 5 5 9 9 14 9 4 5 4 8 10 9 7 4 4 5 6 8 7 5 9 5 12 9 8 8 9 5 4 7 9 9 11 14 8 12 16 12 10 10 10 8 7 10 9 10 10 8 7 9 9 9 10 10 8 7 7 10 11 10 12 13 14 14 15 13 13 12 10 11 13 11 12 15 14 13 11 9 12 10 7 9 12 11 12
6 4 6 9 10 8 4 7 5 7 7 7 5 8 9 8 10 6 7 8 3 10 7 9 6 8 9 8 4 8 6 8 9 16 16 10 14 13 13 11 11 9 8 9 10 10 9 7 7 6 7 9 9 9 9 8 8 9 8 10 10 11 11 11 13 14 14 13 12 12 11 9 11 12 11 10 13 13 11 15 14 11 10 10 8 13
5 6 9 13 6 4 6 3 3 5 5 5 8 6 9 13 9 7 12 8 10 9 7 7 5 6 6 6 6 8 12 5 10 13 11 13 13 14 12 11 10 8 9 10 10 9 7 5 6 6 10 10 12 11 9 10 10 8 8 9 11 10 11 11 12 11 12 13 12 11 9 9 9 9 9 11 11 9 10 11 12 10 11 10 13 10
11 10 11 8 5 6 6 5 5 4 5 9 10 4 6 9 14 11 10 11 11 9 8 5 3 5 8 8 7 9 9 8 11 11 10 10 15 15 14 13 8 7 8 9 11 9 8 10 11 11 12 11 11 10 12 10 9 9 8 9 11 12 12 12 12 11 12 12 12 11 11 10 10 7 7 8 8 7 8 9 11 9 9 9 11 12
12 8 7 7 6 10 6 9 11 12 14 14 9 16 14 8 13 6 16 9 4 5 4 3 3 4 3 8 9 13 14 14 16 11 11 10 16 16 14 11 8 8 9 9 8 7 7 7 8 10 11 11 10 10 8 10 9 8 8 8 9 12 12 12 10 10 10 10 11 10 10 10 11 11 9 7 7 7 7 7 9 11 11 10 9 11
9 7 9 9 9 8 7 13 11 12 11 11 9 6 10 8 11 5 9 6 8 8 8 4 5 8 7 9 6 14 18 20 10 9 9 14 14 12 10 6 6 6 8 9 7 6 6 7 8 9 9 9 10 10 11 10 9 9 9 9 9 12 11 11 11 11 11 10 9 9 9 10 9 10 10 10 8 8 9 8 8 8 11 11 12 10
7 11 12 8 8 6 8 7 5 6 3 3 4 7 9 12 9 5 7 5 4 8 8 8 5 9 10 6 10 7 7 5 9 10 10 11 8 8 5 5 5 6 6 6 6 5 6 9 7 8 9 9 9 8 9 8 8 8 9 10 9 11 12 11 11 9 10 12 10 9 9 9 8 8 10 11 9 8 8 9 9 9 8 9 8 9
2 10 11 6 3 4 6 2 6 6 9 5 7 10 11 5 12 4 10 8 5 4 8 11 8 3 6 7 13 14 11 15 14 6 8 9 6 6 7 7 7 7 8 6 6 5 6 6 7 7 8 8 8 8 9 9 8 9 9 8 9 8 10 10 10 11 10 10 10 9 9 10 9 9 9 9 10 11 9 10 9 9 9 9 8 8
8 6 5 11 9 7 4 6 8 6 10 10 10 6 6 10 13 9 5 2 5 9 5 7 8 7 10 11 12 17 18 12 11 8 8 7 5 6 9 9 8 7 6 5 5 4 6 6 7 7 8 10 11 11 11 11 9 7 8 7 9 10 9 10 11 11 9 10 9 10 9 9 9 9 9 10 10 12 12 9 10 9 10 9 8 10
9 12 7 6 6 4 3 6 7 7 8 10 11 9 5 6 9 11 5 8 11 7 10 5 4 4 6 13 8 12 16 12 9 8 6 5 5 9 7 7 5 5 5 5 4 4 5 8 12 13 12 11 10 8 9 11 10 9 8 7 8 9 10 11 12 12 11 10 9 10 10 10 9 10 9 9 9 9 11 11 10 10 11 10 10 9
9 9 8 4 5 8 7 9 12 8 8 11 9 5 12 8 7 10 10 7 4 8 11 7 5 5 6 8 8 9 11 9 7 4 7 8 9 8 7 6 4 4 6 7 9 12 12 12 11 12 10 10 11 10 9 10 11 10 9 9 8 9 10 11 11 10 11 10 8 7 8 7 10 9 10 10 9 8 9 10 11 11 11 11 10 11
9 7 12 7 7 6 6 11 6 9 9 5 5 14 4 12 4 5 4 5 13 4 4 6 4 10 11 10 12 11 9 9 7 6 7 8 8 7 6 6 9 10 9 9 10 10 9 8 8 8 8 9 10 10 11 10 9 10 11 9 10 10 10 10 11 12 12 11 10 10 9 9 8 8 8 9 9 11 9 10 10 11 11 12 11 11
4 6 6 13 11 7 9 9 6 7 6 13 17 10 14 10 4 7 5 4 5 10 7 9 7 12 10 7 11 12 12 12 12 12 10 9 7 6 6 9 9 9 11 10 7 6 6 7 8 8 8 8 8 9 11 11 9 10 10 10 10 10 11 11 11 11 11 11 11 10 10 10 9 10 9 9 9 10 10 9 10 11 11 10 11 11
8 6 3 11 14 7 8 8 5 8 8 9 10 6 7 6 6 6 6 8 7 6 8 9 13 14 13 7 11 13 13 11 10 11 9 7 7 7 8 8 9 11 6 7 6 6 6 6 8 9 9 8 8 9 9 11 10 10 12 12 10 10 10 9 11 10 10 9 9 10 10 9 8 8 8 8 9 10 10 9 10 10 11 9 11 10
9 8 10 4 5 6 6 5 3 6 8 7 11 4 7 7 13 12 5 7 6 5 6 7 9 11 7 5 6 10 11 10 7 7 9 7 7 8 9 8 7 8 7 8 7 6 6 6 7 8 9 9 9 10 10 10 10 11 11 12 10 10 11 11 11 10 9 9 9 10 9 9 9 9 9 9 10 9 10 10 10 9 10 11 11 10
9 10 6 7 8 9 7 4 8 7 10 7 9 5 6 4 5 12 10 10 8 8 7 7 7 15 8 5 5 4 3 4 4 6 9 6 7 8 7 7 8 8 9 8 7 7 7 6 8 8 8 10 10 10 11 11 11 11 11 11 10 10 11 11 11 11 11 11 11 10 10 10 10 9 10 9 10 10 10 11 10 10 10 11 11 11
10 6 12 5 8 12 13 13 7 8 10 5 3 3 3 6 7 4 10 4 4 5 8 10 9 10 9 7 7 4 4 3 5 7 7 7 8 8 8 8 8 8 7 7 6 7 8 8 8 9 9 9 9 10 11 11 11 11 12 11 10 11 11 11 11 12 11 10 12 12 10 10 10 10 10 11 11 11 11 11 11 10 11 11 12 11
10 5 9 7 6 3 5 7 9 9 5 5 2 2 2 7 10 5 3 4 4 3 6 6 12 15 13 9 9 7 4 5 6 7 5 8 8 10 8 9 10 8 8 6 7 7 7 7 8 9 8 9 10 10 11 11 10 11 10 12 10 11 12 12 11 11 11 11 11 10 10 10 10 10 11 12 12 12 13 13 11 12 12 12 14 13
7 4 7 11 14 14 14 14 11 6 4 5 4 4 4 5 6 8 12 9 7 8 8 12 9 5 11 9 9 12 4 6 7 8 9 9 9 7 7 8 8 7 7 7 6 7 8 7 8 9 9 10 10 10 12 11 11 11 10 11 11 11 12 13 12 11 10 11 10 10 10 11 11 12 12 12 13 13 13 14 14 13 13 13 13 13
7 6 4 9 9 12 11 10 9 6 7 7 7 8 5 7 7 7 8 9 10 12 10 9 5 4 10 8 9 10 9 8 10 9 8 7 8 7 8 7 7 6 7 7 6 7 8 9 9 9 10 11 12 13 13 11 11 11 10 12 11 11 12 12 12 11 11 11 12 12 13 12 12 12 14 13 12 12 13 14 14 15 15 13 13 14
9 4 5 4 5 9 8 9 7 4 7 8 9 10 11 10 9 12 11 7 12 5 15 6 8 6 10 9 11 13 12 14 15 16 12 8 5 3 5 7 7 8 8 7 9 8 8 8 8 10 11 12 12 13 12 12 11 10 10 11 11 11 12 13 12 11 11 11 12 13 13 13 13 12 13 14 15 15 14 14 15 15 16 15 15 14
10 3 4 3 5 7 8 7 9 8 5 3 4 7 6 14 16 12 7 4 12 10 8 6 8 14 14 12 12 12 10 9 7 4 3 5 7 6 6 7 8 10 9 9 9 8 8 8 8 10 11 11 12 13 12 12 11 11 11 12 12 12 12 12 12 11 11 11 12 13 12 13 13 14 15 17 17 18 18 17 16 16 16 16 15 15
9 10 5 3 5 7 8 6 5 4 7 6 3 4 4 4 6 5 5 4 4 9 6 3 4 12 14 12 12 7 4 2 5 6 8 7 6 6 8 9 10 10 10 9 8 10 9 8 9 10 11 11 12 13 12 12 10 11 11 11 12 13 13 12 12 11 10 11 10 12 13 14 14 16 17 17 18 18 19 20 18 16 15 15 15 15
4 6 4 5 3 10 8 6 6 7 8 7 8 4 7 10 7 8 11 13 10 11 4 4 4 14 16 7 5 4 4 9 9 9 7 7 7 6 9 11 10 10 10 10 10 8 8 8 9 11 12 12 12 12 11 11 10 10 11 12 13 14 13 12 12 12 12 11 12 13 14 15 15 16 18 19 20 20 20 19 18 16 15 16 16 15
10 9 6 3 3 10 12 4 3 5 8 13 10 15 18 7 2 2 5 4 10 11 10 5 14 12 7 4 6 2 5 6 7 9 7 6 7 9 12 12 12 10 10 10 9 8 8 8 9 11 12 10 12 11 12 10 10 12 13 14 13 14 13 12 12 14 14 14 13 14 15 16 18 18 18 19 20 21 19 18 16 17 17 17 17 17
5 8 6 7 7 8 8 6 3 9 11 11 12 12 18 14 16 10 8 14 13 15 12 15 13 5 3 3 8 8 7 11 15 16 10 15 14 10 10 9 10 10 9 8 8 8 8 9 10 12 10 10 11 10 10 9 9 11 12 13 13 13 13 13 13 13 14 15 15 16 16 17 17 18 19 19 20 20 20 17 17 16 17 17 17 17
8 6 6 9 6 8 7 6 10 10 16 11 6 10 17 12 15 17 10 6 7 13 8 9 10 8 13 12 12 11 13 8 6 11 9 8 8 11 12 11 11 10 10 8 8 8 9 10 9 11 10 10 9 10 9 10 8 9 12 12 13 13 14 13 13 13 14 15 15 15 16 16 16 17 18 19 20 20 19 19 18 18 18 17 17 17
11 11 8 6 5 7 7 7 8 12 10 7 5 5 6 10 4 3 8 10 13 18 20 15 17 11 7 9 8 7 12 9 5 5 8 9 9 10 9 11 11 9 9 10 9 10 9 8 9 8 9 9 8 10 7 8 8 8 12 12 12 14 14 13 13 12 14 14 14 15 16 16 16 18 19 19 19 18 19 21 21 21 20 18 16 15
15 7 7 7 4 8 6 6 16 12 16 8 4 6 14 11 10 12 9 13 10 13 16 14 14 9 7 7 9 9 6 6 5 9 7 9 9 8 11 11 11 11 10 9 9 11 10 8 8 8 7 8 9 8 8 8 7 7 10 12 12 13 14 12 12 13 14 14 14 17 16 16 17 19 19 19 20 19 19 21 22 22 22 20 18 15
13 14 9 8 9 9 4 8 13 11 10 15 16 8 4 5 10 8 8 13 8 8 11 13 8 8 9 7 9 10 7 8 5 15 13 10 9 9 7 7 5 7 9 8 7 7 8 9 7 7 8 8 10 8 6 7 7 8 10 12 12 13 12 11 13 13 14 14 16 16 17 17 17 17 18 18 19 18 19 19 18 20 22 19 18 18
10 9 11 12 8 5 4 7 10 7 17 13 12 10 5 8 13 8 11 13 14 10 11 12 10 10 13 15 10 10 11 9 15 17 15 11 9 8 8 8 9 10 10 10 10 9 9 10 6 7 8 10 10 10 7 6 6 8 10 11 12 12 10 11 13 13 14 14 14 15 16 16 16 16 15 16 17 17 19 20 19 20 18 17 17 18
9 6 5 3 5 9 8 7 11 15 15 4 7 5 7 10 10 11 9 18 9 7 11 11 11 13 12 11 16 17 18 13 15 18 12 15 12 10 11 11 9 9 9 9 8 9 7 5 5 9 9 11 11 8 7 5 6 7 9 11 11 10 10 10 10 10 11 12 12 13 15 14 16 15 14 15 16 18 18 18 18 20 18 17 17 17
6 4 4 15 10 6 7 11 10 20 17 9 8 6 8 6 9 8 12 16 8 9 10 12 11 13 15 14 16 18 20 18 12 9 10 10 7 5 6 7 12 13 12 10 11 7 6 7 4 5 7 8 8 8 6 5 6 9 8 9 10 10 11 10 9 10 11 11 12 13 13 13 13 15 14 13 15 16 17 16 17 17 17 17 17 18
4 6 5 6 5 11 10 11 18 15 17 9 3 11 9 9 6 10 17 9 11 8 10 13 12 11 15 20 18 18 18 13 6 7 10 10 15 12 10 10 7 5 6 5 7 6 5 6 6 6 9 7 8 9 6 5 6 7 8 8 9 10 10 9 9 10 10 11 12 12 12 13 14 13 13 14 16 16 15 14 14 15 15 16 17 19
14 12 9 10 11 6 5 6 8 11 9 9 12 4 3 9 16 14 7 3 6 7 13 10 11 10 13 14 16 16 5 5 9 12 11 9 8 10 10 9 9 11 12 8 6 7 6 7 8 8 6 7 6 8 6 3 6 8 8 10 9 9 9 8 9 10 10 10 11 12 12 12 13 14 14 14 14 14 14 13 14 15 15 17 17 18
8 7 9 11 15 9 9 11 16 20 13 12 20 16 14 19 11 11 11 5 5 7 10 9 9 12 14 14 16 11 8 9 5 6 7 6 7 8 7 7 7 7 7 8 8 8 6 7 7 8 6 6 7 6 7 4 5 8 9 11 10 8 7 8 8 8 9 9 11 12 12 13 13 14 14 14 12 11 12 15 14 14 16 16 16 17
10 11 12 7 7 14 16 16 16 8 13 20 18 15 16 17 8 12 9 10 9 9 7 9 10 9 14 13 10 12 7 10 11 12 13 13 11 10 11 12 13 12 11 10 11 8 6 9 10 7 8 7 6 6 6 4 4 7 9 12 8 7 6 6 7 7 8 9 10 11 11 11 11 12 13 12 11 9 11 11 13 15 15 14 15 16
10 8 4 7 14 8 10 12 5 4 5 12 16 8 10 7 3 7 9 8 7 7 14 12 9 11 10 10 14 6 12 11 8 8 8 8 10 10 8 7 7 7 5 5 6 6 8 7 6 6 8 9 6 7 6 6 3 5 9 8 7 6 5 5 7 7 8 8 9 10 10 10 10 9 10 10 10 9 6 8 12 14 14 14 14 15
8 5 6 10 6 5 15 5 4 10 7 15 19 10 4 7 11 11 8 8 7 7 8 9 14 13 14 14 14 14 11 9 10 10 9 7 8 10 11 11 11 10 10 9 11 6 6 6 7 9 5 5 5 7 7 5 5 5 6 6 6 5 4 6 7 7 7 9 10 9 9 9 10 11 10 9 10 8 8 7 7 11 13 13 14 15
12 4 5 7 4 9 15 9 10 8 10 9 12 11 14 15 9 8 11 9 8 9 9 11 8 8 9 11 11 13 11 9 10 10 9 10 11 11 11 10 10 8 9 8 6 5 5 6 9 7 4 6 9 6 7 5 5 6 6 7 6 3 4 6 6 6 7 8 7 8 8 9 9 10 10 10 10 10 11 10 8 8 12 13 14 14
9 3 12 5 10 12 9 10 10 7 7 7 7 12 15 13 10 8 10 7 6 8 5 6 9 14 15 13 10 10 10 9 12 12 12 11 8 7 10 11 9 11 9 7 8 7 10 9 7 6 5 8 7 5 6 5 6 5 5 6 5 3 5 6 5 6 6 7 8 10 8 8 8 9 9 10 10 10 7 6 9 8 9 4 3 7
4 14 7 5 11 12 14 13 8 12 14 16 14 15 14 12 12 12 7 6 6 7 8 12 5 3 7 11 14 12 13 12 11 8 10 11 12 11 9 8 8 8 8 8 6 7 7 4 6 6 7 10 4 4 4 5 5 5 5 4 4 3 4 4 5 6 7 7 7 8 9 9 10 9 10 9 10 11 13 9 7 5 7 9 9 7
9 14 8 13 10 15 14 14 12 10 11 18 20 16 14 13 11 11 13 12 10 9 12 13 9 5 6 6 7 13 11 12 13 9 8 7 11 12 12 11 9 8 10 7 6 8 8 7 6 5 7 9 4 4 6 5 5 5 6 5 3 3 3 2 4 5 6 7 8 8 8 8 9 9 8 8 8 8 9 12 15 11 9 8 9 9
Wind_Speed
1 3 1 1 4 4 3 4 1 1 4 3 3 3 2 2 1 2 1 1 2 5 5 2 6 6 5 3 1 1 4 3 2 3 3 2 3 3 2 2 2 3 2 2 3 3 3 5 6 6 5 5 6 6 7 7 8 7 7 8 9 7 9 9 9 9 8 7 6 4 4 6 3 5 3 5 4 5 6 4 5 6 6 6 5 5
5 6 1 3 3 2 1 3 5 6 4 4 4 2 1 1 1 0 0 2 2 3 0 0 7 4 2 3 3 3 5 4 5 4 3 3 3 2 2 2 2 1 1 3 5 6 5 7 7 6 6 6 8 8 8 9 7 7 7 8 7 7 7 9 8 7 6 5 4 3 3 4 4 5 4 5 6 6 6 7 6 3 3 3 5 5
5 2 1 2 1 4 7 5 3 5 5 4 3 3 2 2 2 4 1 3 4 6 2 1 6 2 2 2 3 3 3 1 3 3 2 2 1 1 1 1 1 2 2 3 3 4 5 7 7 5 5 5 4 5 7 6 7 8 8 7 6 7 7 7 8 8 7 6 4 3 4 5 5 5 4 4 4 4 6 4 4 4 4 4 4 3
4 2 3 1 4 6 5 6 6 6 5 4 1 0 2 2 1 1 3 2 5 2 7 3 7 0 3 1 3 1 3 2 5 6 3 3 0 1 1 0 1 2 3 4 3 4 5 5 5 5 6 5 5 6 7 7 7 6 7 7 8 7 7 7 7 7 8 7 5 2 2 2 4 3 4 3 3 3 4 3 1 7 1 4 5 4
4 0 1 6 5 4 6 4 7 6 3 2 1 2 0 0 1 4 2 1 1 5 5 6 5 1 3 1 2 1 1 2 3 2 3 3 4 1 2 1 1 1 2 2 4 5 5 6 5 4 4 4 6 5 6 6 6 5 6 7 6 7 7 7 8 7 6 9 9 7 5 4 3 4 4 4 3 2 3 2 2 8 2 4 5 4
3 0 0 4 3 5 6 6 2 2 3 4 3 3 2 3 1 2 1 2 3 1 4 1 1 2 3 2 2 3 3 1 1 4 2 3 3 4 2 0 2 3 1 3 3 3 3 3 4 6 6 6 5 6 5 4 5 5 7 7 7 7 7 7 7 8 6 7 8 8 9 7 6 4 3 3 4 3 3 2 4 3 2 4 5 5
2 3 4 3 7 5 4 3 1 3 2 1 2 3 1 1 1 3 3 4 0 2 2 1 4 2 2 2 0 2 2 4 2 3 3 3 5 3 0 1 2 1 2 3 3 3 5 4 5 5 5 5 5 6 5 5 6 7 7 7 6 6 7 7 8 8 6 7 7 8 8 6 5 4 3 2 2 4 4 2 2 2 3 4 5 4
1 4 5 5 5 4 4 5 1 3 3 2 2 0 2 2 2 4 5 4 1 0 1 5 3 2 1 3 2 3 1 3 4 3 4 5 4 2 1 2 1 1 1 4 3 3 3 3 3 4 5 5 6 5 5 6 6 6 6 6 7 6 7 7 7 8 7 5 6 6 7 7 7 5 4 3 2 3 3 2 3 3 3 3 4 3
1 1 2 3 3 5 3 1 1 2 0 2 2 4 2 1 2 4 5 4 1 3 1 6 4 2 2 3 3 1 3 4 5 4 4 4 3 3 3 1 0 1 2 3 4 3 3 2 3 4 6 6 6 6 6 5 5 5 5 6 6 7 7 8 7 7 8 6 4 4 5 7 6 6 5 3 2 2 4 4 3 3 3 3 3 2
1 2 3 5 3 2 1 1 1 4 2 0 2 4 5 5 6 4 4 5 1 2 2 3 3 1 3 3 3 1 3 4 3 3 3 3 4 3 1 1 2 2 3 2 1 1 2 3 4 4 4 6 6 6 6 5 5 6 5 7 7 7 7 7 8 8 8 7 6 6 5 5 6 6 6 5 5 5 5 2 3 3 3 3 3 2
0 4 6 4 1 1 3 1 1 1 2 0 3 1 5 8 4 3 6 3 3 1 2 2 1 1 1 1 1 1 1 0 3 0 1 3 3 2 1 2 3 3 3 2 2 2 3 3 3 4 6 7 8 7 5 6 6 5 5 6 7 7 7 7 8 7 7 7 6 5 5 5 5 5 6 7 7 6 5 1 2 1 1 1 1 0
4 3 2 1 1 2 2 1 1 2 2 4 3 1 2 1 7 4 4 5 2 2 2 2 1 2 2 1 2 3 5 4 2 0 1 4 3 1 1 2 2 2 2 1 1 3 4 6 8 8 8 7 7 6 7 5 6 6 5 6 7 8 8 7 7 7 7 6 7 5 5 5 4 4 4 5 5 5 4 2 2 2 1 1 1 1
4 4 3 4 2 4 2 1 2 6 6 8 4 8 3 2 4 1 7 1 0 2 0 0 1 1 0 1 5 1 3 2 1 1 3 3 2 1 2 2 1 1 0 0 2 3 4 5 5 6 6 7 7 6 6 6 5 5 5 6 6 8 8 8 7 6 7 6 6 6 6 5 4 4 3 3 3 4 3 3 4 3 3 4 3 2
3 3 5 6 4 3 3 4 5 4 5 6 4 2 4 2 4 1 3 1 3 3 2 1 2 1 1 1 1 2 3 1 1 3 5 6 5 4 2 1 0 1 1 2 2 3 4 4 4 4 4 5 6 7 7 7 6 5 5 6 6 8 7 7 8 7 7 6 6 5 5 5 4 4 3 3 3 3 3 3 4 4 3 2 2 2
0 2 4 4 1 2 3 2 1 2 1 0 2 1 4 5 2 1 2 1 1 2 4 3 0 2 1 1 0 2 2 3 3 3 4 2 3 5 3 2 2 1 1 1 3 3 3 3 4 4 4 5 5 5 6 5 5 5 5 6 6 7 8 7 7 6 7 7 6 5 4 5 4 4 4 4 3 3 3 3 3 3 3 2 2 3
0 3 4 3 2 1 2 0 3 3 3 0 2 3 5 0 6 0 2 2 1 1 2 4 1 1 1 2 1 3 1 4 3 3 2 2 3 2 1 3 2 0 1 2 2 3 3 3 3 4 4 5 5 5 5 6 4 4 4 4 5 5 6 6 6 7 6 6 5 5 5 5 4 3 3 4 4 3 3 3 3 3 2 2 2 3
1 1 2 6 3 4 1 0 1 1 1 2 2 1 1 3 7 4 1 1 1 2 0 1 3 2 1 2 0 2 3 1 2 1 0 1 1 1 3 2 1 2 1 1 1 2 3 3 4 3 4 5 5 5 6 6 6 4 4 4 5 6 6 7 6 7 6 6 6 5 5 5 4 4 4 4 4 4 3 3 3 3 3 3 2 2
2 1 2 2 2 0 1 1 3 2 3 3 3 2 1 3 3 3 1 2 5 1 2 1 1 1 0 2 1 3 5 3 3 2 1 1 1 2 3 2 2 3 2 1 2 3 3 4 4 5 4 4 5 5 6 7 6 6 5 5 5 6 7 7 7 7 6 6 6 5 5 5 4 3 3 3 4 4 4 3 3 3 3 3 3 3
2 1 1 1 2 5 4 1 4 2 2 4 1 3 0 1 0 3 3 1 1 2 4 3 0 2 2 3 1 3 7 5 4 2 1 3 3 4 3 2 2 2 1 1 2 3 4 4 4 4 4 5 5 6 6 7 7 7 6 6 5 6 6 7 6 6 6 6 4 4 5 4 5 4 3 2 2 3 3 3 3 3 3 4 3 3
3 2 3 1 1 3 2 3 0 3 3 3 2 3 1 3 1 1 0 1 4 1 1 2 1 3 4 4 7 7 5 5 4 3 5 6 5 4 3 2 3 3 2 3 3 4 4 4 4 4 5 6 7 6 7 6 6 7 7 6 6 6 6 7 8 7 7 6 5 5 5 4 3 4 4 3 3 4 3 3 3 3 3 4 4 4
0 1 0 3 3 2 1 2 2 2 1 2 4 3 2 2 1 3 1 1 0 3 3 1 2 4 4 3 7 8 8 8 8 8 6 6 5 4 4 4 4 3 3 4 4 3 4 4 5 5 5 5 6 5 5 5 6 6 6 6 7 6 7 6 7 6 6 5 6 5 6 6 6 7 5 6 4 3 4 4 2 3 3 3 4 4
2 1 0 2 3 1 3 2 2 3 2 2 3 1 3 0 0 2 2 1 2 1 2 2 4 6 7 1 3 7 8 7 6 6 6 5 5 5 4 4 4 3 4 4 4 4 4 4 5 5 6 5 5 6 6 7 6 7 8 7 6 6 6 5 6 6 6 5 5 6 6 6 5 5 5 5 5 5 5 4 4 3 3 4 4 4
2 3 4 1 1 2 2 3 2 2 3 2 3 0 2 4 5 4 1 2 1 0 3 3 0 4 2 2 3 5 6 6 5 4 4 4 5 5 5 4 4 4 5 5 5 4 4 4 4 5 5 5 5 6 6 7 7 7 8 8 7 6 7 6 6 6 5 5 5 6 6 5 5 5 6 6 5 6 6 5 5 3 4 4 4 4
4 2 2 3 4 5 3 1 0 2 3 1 4 2 1 1 1 4 2 3 2 1 1 1 1 5 2 2 3 1 1 1 1 4 5 4 5 5 5 4 5 5 6 5 4 4 4 4 4 5 5 6 6 6 7 7 7 7 7 7 6 7 8 7 6 6 6 5 6 6 5 5 5 6 6 6 5 6 6 6 6 5 4 4 4 5
1 1 5 2 2 3 4 3 2 3 4 1 0 0 1 3 4 2 5 0 1 2 4 4 3 2 2 3 4 2 1 1 2 4 4 5 5 5 5 5 5 5 5 5 4 4 5 5 5 6 6 6 5 6 6 7 7 7 7 7 7 7 7 7 7 6 6 5 6 6 6 6 6 6 6 6 5 6 6 6 6 5 5 5 5 5
2 2 3 1 2 0 1 2 2 1 3 0 0 1 0 3 7 0 0 1 1 0 2 1 4 8 7 4 2 0 1 3 4 4 3 5 5 6 5 5 6 5 5 4 4 4 4 4 5 5 5 5 6 6 6 6 7 6 7 8 6 7 8 8 7 7 6 5 6 6 7 6 5 6 6 6 6 6 6 6 6 6 5 5 6 6
1 1 2 5 4 5 6 4 3 2 2 0 1 3 3 2 2 4 4 3 3 2 4 6 4 1 1 4 3 4 2 5 5 5 6 6 6 5 4 5 5 5 5 4 4 4 4 4 6 6 6 5 6 6 6 6 7 6 6 7 7 7 7 8 7 7 6 6 5 6 6 6 6 6 6 6 6 6 5 6 6 6 6 5 5 6
2 0 2 4 4 5 5 2 2 3 1 2 2 4 2 4 4 5 4 3 5 5 5 3 3 1 6 5 6 5 5 5 6 6 5 5 5 5 5 4 5 4 5 4 4 4 4 5 6 6 6 6 7 8 7 6 6 6 6 7 7 7 6 6 7 7 7 6 6 6 6 5 6 6 6 6 5 6 6 6 6 6 6 6 6 6
2 1 1 2 3 3 5 5 2 1 3 2 4 5 7 7 7 8 8 4 9 1 7 2 5 3 5 5 6 8 8 9 10 11 8 5 3 2 2 4 5 6 5 5 5 4 4 5 5 6 7 7 7 8 7 7 7 5 6 6 6 6 7 7 7 7 6 6 5 6 6 6 5 5 6 6 6 6 7 7 7 7 6 6 6 6
2 1 1 0 2 3 2 3 2 4 1 1 3 4 3 10 11 9 3 1 7 6 2 1 4 8 7 6 6 8 6 6 4 2 0 1 4 4 4 5 6 7 6 6 6 5 5 6 5 6 6 7 8 7 7 7 6 6 6 7 7 7 7 7 7 6 7 6 6 6 5 5 4 5 6 6 7 7 7 7 7 7 7 7 7 7
1 2 2 1 1 2 1 2 2 0 3 3 1 2 1 2 3 2 3 1 2 6 4 2 2 7 7 7 8 3 1 1 1 1 5 5 4 5 5 6 7 7 6 6 5 6 6 5 5 6 6 7 7 7 6 6 5 5 6 6 7 7 7 7 7 7 6 6 6 5 5 5 5 6 7 7 6 7 8 7 7 8 8 8 7 7
0 2 2 1 0 4 1 2 2 3 1 3 5 2 4 8 5 4 4 7 6 6 2 3 1 6 8 4 2 2 0 3 5 5 4 4 5 4 6 7 7 7 6 6 6 5 6 5 5 6 7 7 7 8 6 6 6 5 7 7 7 7 7 7 7 7 7 6 6 6 6 6 6 6 6 6 7 7 7 8 8 8 8 9 9 8
3 3 1 0 0 3 2 2 1 2 3 7 4 4 12 4 1 0 2 3 6 7 6 2 8 6 3 1 3 1 2 4 4 4 4 4 5 6 7 8 8 6 7 6 6 5 5 5 5 6 7 6 6 7 7 4 4 5 6 7 7 6 7 7 7 7 7 7 6 6 6 6 6 6 6 6 7 6 6 8 9 9 9 10 9 9
2 4 1 1 0 2 2 4 1 3 4 3 3 4 9 6 9 6 4 8 8 8 5 6 6 2 1 1 5 5 5 6 9 10 6 9 8 7 6 6 7 7 6 5 5 5 6 5 6 6 5 6 7 7 6 4 2 4 4 5 6 6 6 7 7 7 7 7 7 7 7 6 7 7 7 6 6 6 8 8 8 9 8 9 9 9
3 2 2 2 1 2 3 3 4 3 7 5 2 3 5 1 5 8 6 3 5 8 5 6 6 5 8 7 8 7 8 5 2 4 5 5 5 7 8 8 7 7 7 6 5 5 6 6 6 6 6 6 5 6 5 6 3 5 5 5 6 6 6 6 6 7 7 7 8 8 7 7 7 7 6 6 6 7 7 7 7 8 8 8 8 8
5 4 3 0 2 1 1 3 1 3 4 3 1 2 2 2 1 1 4 6 9 12 13 9 11 7 5 6 5 4 4 5 3 3 6 5 6 6 6 7 7 6 6 6 6 6 5 6 6 5 6 4 4 6 4 3 3 4 5 4 5 6 6 6 6 6 7 7 7 8 7 7 6 6 6 6 7 6 7 7 7 8 8 8 8 7
8 3 3 1 1 2 1 2 7 5 8 4 1 1 5 3 5 4 3 5 6 8 10 8 9 4 4 4 3 2 2 1 1 5 4 6 5 5 7 7 6 7 7 6 6 7 7 5 5 5 4 5 4 5 5 3 3 3 4 5 5 6 6 6 6 7 7 7 7 7 7 6 6 6 7 6 7 7 7 8 8 7 7 7 7 7
5 6 3 3 2 3 1 3 4 3 1 6 6 3 3 2 3 3 3 6 4 5 7 8 6 5 5 1 4 4 4 4 2 8 8 7 5 6 5 5 4 4 5 5 4 4 6 6 4 4 4 5 7 5 3 3 3 3 4 5 5 6 6 6 6 6 6 6 7 6 7 7 6 6 6 6 7 7 6 6 7 7 7 6 6 7
6 5 4 6 2 3 2 1 2 1 6 5 5 3 1 3 6 4 4 5 6 4 7 8 7 4 8 9 6 5 6 2 7 8 8 6 5 5 5 5 5 5 6 6 6 6 6 6 4 4 4 3 5 6 4 3 2 3 4 4 5 4 5 6 6 6 6 6 6 7 6 6 6 6 6 6 7 6 7 7 6 6 6 6 6 6
4 1 1 1 1 1 4 2 4 4 3 1 3 1 2 4 2 3 2 4 2 3 5 7 6 7 7 6 9 8 9 6 7 8 5 8 8 7 7 6 5 5 6 6 4 5 4 3 2 3 4 4 5 5 5 4 2 4 4 5 3 4 5 5 6 6 5 5 5 6 6 6 6 5 6 7 7 6 6 6 5 7 7 6 6 6
2 1 1 5 2 2 3 2 2 5 5 5 4 3 3 2 2 2 3 4 2 3 6 7 7 7 10 9 8 7 9 8 6 3 3 2 4 3 4 3 6 6 8 6 6 3 3 5 3 4 4 5 5 4 4 3 4 5 4 4 4 5 5 5 5 5 6 5 5 6 6 6 6 6 5 5 5 5 6 5 6 5 5 6 6 6
1 2 2 3 2 4 5 3 6 5 7 3 1 3 3 2 0 3 7 2 4 5 6 8 6 6 10 12 9 8 9 6 2 1 2 6 10 8 6 5 4 4 4 2 3 2 3 4 4 4 5 4 3 3 3 3 4 3 4 4 4 4 5 5 5 4 5 6 6 6 6 6 6 5 5 6 5 6 7 6 5 5 5 5 5 6
5 3 3 3 2 2 1 1 2 2 2 4 7 3 0 1 6 6 1 1 3 4 8 6 5 6 8 8 9 10 4 1 4 4 6 5 5 6 6 5 6 7 7 5 4 4 3 4 5 6 4 4 4 3 2 2 3 3 3 4 4 4 4 4 4 4 5 5 6 6 6 5 6 5 4 5 5 4 4 5 6 6 6 6 6 7
1 1 1 3 5 3 3 3 3 7 3 6 8 5 5 10 3 6 5 1 1 3 5 5 5 7 9 8 10 7 4 1 2 2 4 4 4 4 3 4 5 5 4 4 4 4 3 4 5 5 4 3 4 2 1 1 1 2 2 3 4 3 3 4 4 3 5 5 6 6 5 5 5 4 4 4 4 4 4 5 5 6 6 7 6 6
2 1 3 1 1 4 5 6 7 3 4 8 7 7 5 4 2 5 4 5 5 5 3 4 6 6 9 8 6 6 4 5 5 7 8 8 7 6 7 8 8 8 7 6 7 5 3 6 7 5 5 4 3 3 1 0 0 1 3 3 3 3 3 3 3 4 5 6 5 5 5 5 5 5 5 5 5 5 5 5 5 5 6 6 6 6
5 4 1 1 6 4 4 7 2 1 2 6 9 4 1 1 2 3 4 3 4 4 8 7 5 7 7 5 6 4 7 7 5 5 5 4 6 7 5 3 4 4 4 4 4 4 5 4 4 4 5 6 3 3 1 1 1 1 3 4 3 1 1 2 3 4 4 5 5 5 5 6 6 5 5 6 5 4 3 4 4 4 5 5 5 5
2 2 2 3 3 3 3 3 1 3 2 4 10 6 3 3 4 5 4 4 4 4 4 4 5 7 9 9 9 9 7 5 6 6 6 4 5 6 6 7 6 6 6 6 7 4 4 4 5 6 3 3 3 3 1 2 2 3 3 4 4 2 1 1 2 3 4 5 5 5 5 6 5 6 6 6 6 5 4 4 4 4 4 4 5 5
3 1 1 3 1 3 5 4 6 5 7 5 5 5 8 10 6 5 7 4 2 3 4 5 4 3 4 6 6 7 6 6 7 6 5 6 7 7 6 7 7 5 6 6 4 3 4 4 6 4 3 4 5 1 1 3 3 2 3 3 2 2 1 1 2 2 3 4 4 4 5 5 7 7 6 5 5 6 6 6 5 5 5 4 4 6
2 0 3 1 2 5 5 7 6 5 4 5 5 7 9 6 5 6 7 4 2 4 3 2 2 5 8 8 6 5 5 6 8 7 7 6 5 5 6 7 6 7 5 4 5 4 6 6 5 4 4 5 5 1 1 2 4 3 3 3 2 1 1 1 1 2 3 4 5 5 4 4 4 5 5 6 6 5 2 3 5 5 5 3 2 2
0 6 2 2 5 5 5 6 1 3 5 8 9 7 8 7 6 6 4 4 3 4 4 5 1 1 3 3 7 7 7 7 7 5 6 7 7 7 6 5 5 5 6 5 3 4 4 2 4 4 5 6 3 2 3 3 3 3 3 3 1 0 1 1 2 3 4 3 4 4 5 5 5 5 5 5 5 6 6 5 4 3 4 5 7 5
4 6 3 5 4 6 8 8 4 3 4 9 10 10 5 4 5 6 8 8 7 5 7 7 4 2 4 4 4 7 7 7 8 6 5 5 7 8 7 6 6 5 6 5 4 5 5 5 4 4 4 6 3 3 4 4 3 3 4 3 2 1 2 1 1 2 3 3 4 3 3 3 5 5 4 4 5 5 5 6 7 7 4 4 6 7
Wind_Direction
102 84 103 222 232 227 246 185 144 188 144 115 87 101 189 157 295 283 286 250 108 77 27 78 114 110 105 106 47 196 116 137 195 211 180 147 122 123 116 115 109 85 83 320 332 347 352 22 32 31 23 14 21 18 19 23 22 22 15 20 20 9 21 19 7 5 360 360 351 8 340 311 126 108 104 95 81 18 19 48 117 137 144 148 147 151
70 64 358 219 222 200 237 187 119 76 48 117 97 97 178 121 147 37 104 344 333 115 7 87 94 49 35 44 65 103 125 189 195 188 194 181 156 163 159 155 126 40 360 14 27 13 18 28 27 26 23 17 26 5 15 17 10 10 11 19 2 7 18 22 17 0 2 346 355 309 304 271 51 59 57 68 72 66 19 23 2 80 104 128 147 148
35 104 274 308 149 95 49 60 74 112 102 41 145 172 104 266 244 293 305 1 2 81 180 164 104 83 49 61 33 82 110 303 282 202 184 183 222 151 205 191 32 64 62 32 25 20 30 29 24 26 16 15 15 9 15 360 8 7 11 2 358 3 8 13 13 16 358 340 349 358 340 1 49 53 54 61 76 85 97 46 352 316 100 101 76 69
60 311 306 294 81 78 47 36 58 60 65 96 70 52 225 239 123 250 303 5 12 102 172 163 111 109 330 343 75 47 127 156 299 281 178 128 96 302 268 283 154 109 71 54 27 36 31 32 21 17 15 354 9 15 7 2 2 3 6 1 355 358 2 359 7 15 360 353 349 359 305 49 79 98 98 75 70 65 74 66 30 280 128 92 86 82
171 266 264 62 40 81 84 29 55 52 6 328 128 124 193 263 241 149 224 76 355 33 75 108 63 357 359 87 155 250 296 189 241 246 104 61 78 74 36 28 343 60 55 73 49 35 34 30 7 357 348 0 20 10 3 350 356 356 357 354 352 351 358 357 355 1 5 9 2 6 356 24 77 73 56 108 97 119 91 90 242 223 194 110 99 86
42 288 41 52 56 53 71 43 35 112 28 323 236 174 232 228 198 266 16 88 26 5 3 100 56 266 289 283 231 291 355 154 253 131 96 113 87 81 76 310 14 32 40 105 81 62 47 23 9 11 6 9 2 6 340 336 348 359 353 355 352 352 354 359 353 348 9 22 19 9 13 11 16 41 67 44 84 69 102 109 223 230 69 84 77 71
140 336 84 119 90 68 67 97 242 107 148 80 312 177 230 214 165 148 110 84 11 168 292 354 170 257 329 177 167 328 332 60 28 95 124 87 75 82 351 7 4 350 50 55 55 40 47 16 26 7 359 345 358 339 335 343 353 356 357 347 352 349 349 356 352 349 358 24 22 25 22 11 16 19 67 42 41 91 59 16 258 347 50 66 83 91
48 4 45 31 63 73 68 46 337 124 86 332 273 73 81 90 152 190 156 145 168 216 326 37 83 155 198 245 271 301 51 64 49 31 72 77 84 101 80 24 347 8 128 109 67 48 36 29 25 352 322 342 329 319 336 350 350 353 342 346 347 349 352 353 349 353 352 16 20 27 32 25 6 356 342 338 8 77 126 143 353 16 15 54 65 80
134 64 88 77 70 72 82 213 276 172 177 231 315 112 91 181 221 123 107 105 130 109 283 343 351 71 266 270 307 333 80 39 34 30 66 88 93 94 61 14 84 148 85 81 90 54 27 2 332 331 337 322 333 349 345 331 324 330 344 350 350 351 354 346 350 351 351 352 16 29 33 37 12 358 350 334 355 30 44 31 6 5 20 56 49 49
284 150 202 137 108 69 239 232 195 138 25 282 176 76 89 74 65 83 100 99 16 81 246 306 4 151 287 288 353 344 89 59 28 15 69 101 110 99 102 109 123 69 56 49 50 12 346 327 319 315 309 342 345 335 336 338 347 349 350 356 349 349 348 345 349 350 348 354 356 19 18 37 24 9 358 358 14 21 64 29 314 320 344 19 46 58
310 321 158 69 96 212 166 235 141 100 251 192 67 53 9 41 27 39 66 94 61 20 264 246 4 145 295 287 239 74 224 309 311 320 15 81 78 74 171 167 100 65 46 19 346 346 332 308 312 336 357 345 344 341 342 346 343 341 357 351 353 341 345 352 348 347 349 351 358 7 9 15 28 21 12 15 15 11 40 66 265 269 218 104 142 272
4 356 41 291 6 76 113 120 63 31 42 93 32 91 54 346 8 32 347 36 86 287 258 283 195 170 155 297 301 255 282 244 246 308 147 111 102 149 50 39 33 29 9 332 13 352 353 349 359 1 352 340 329 333 345 332 336 342 343 357 354 344 348 344 345 343 349 355 356 0 6 8 5 29 34 18 16 359 358 355 240 229 132 112 122 123
38 37 284 316 291 75 38 88 299 7 26 50 62 33 92 264 34 317 9 350 155 156 170 15 181 42 219 214 278 260 259 285 17 148 115 110 93 11 9 354 357 342 294 321 346 345 353 8 348 345 335 339 336 321 311 320 326 334 343 358 357 343 342 339 337 344 336 0 358 356 357 359 357 9 32 21 22 353 347 339 324 343 50 13 12 34
270 286 3 334 15 24 91 83 335 17 334 31 63 103 69 54 44 271 277 232 303 305 251 347 319 154 259 281 236 194 226 212 96 83 59 52 2 311 304 309 259 266 297 324 330 348 354 342 335 331 329 327 323 323 322 324 332 335 345 351 358 335 337 338 340 345 337 347 353 356 0 1 360 354 10 12 13 0 345 336 337 337 7 23 336 317
47 348 319 2 22 327 69 134 177 168 77 176 158 118 160 148 150 228 229 219 215 206 280 287 115 267 45 256 227 205 187 130 91 85 77 89 255 272 271 268 245 274 322 337 357 346 322 323 331 321 319 316 316 316 328 327 325 338 347 348 345 338 333 338 333 336 342 339 343 356 358 6 9 4 5 360 10 9 3 342 339 333 338 345 311 291
169 207 257 264 247 13 85 265 114 94 52 333 147 94 63 298 153 89 217 156 260 327 355 350 208 346 183 255 239 158 78 104 152 145 229 273 286 298 207 197 203 302 309 347 342 328 336 328 317 325 321 314 306 314 324 330 323 337 330 331 327 328 320 325 332 334 333 333 333 345 2 357 3 11 11 7 12 14 1 342 339 337 298 268 276 276
29 50 308 325 11 72 15 150 340 94 27 271 51 46 228 170 105 87 91 57 61 50 306 275 320 314 335 352 27 208 97 119 111 100 333 293 296 301 238 253 295 276 295 306 314 316 310 320 324 308 297 300 315 330 326 315 317 313 323 329 323 323 326 326 328 325 324 326 336 337 340 353 358 6 17 6 356 356 355 356 347 339 325 308 287 269
142 238 296 75 54 57 101 94 88 25 136 68 54 243 128 104 119 123 210 351 59 136 254 8 222 261 88 278 339 140 161 185 172 228 272 277 284 204 232 261 257 252 253 276 287 286 279 286 287 289 287 297 315 313 319 324 325 320 318 324 324 323 325 320 323 322 319 321 326 327 334 336 337 329 356 12 357 350 352 1 1 347 349 344 316 302
99 37 296 299 225 280 347 36 350 352 29 123 163 204 93 293 347 319 89 353 329 309 289 302 265 249 183 237 175 186 178 188 202 249 263 229 230 219 240 266 269 272 272 280 290 300 294 279 276 286 300 311 317 320 318 322 324 326 325 324 327 317 310 308 311 311 314 314 311 314 321 321 319 321 339 1 359 348 348 342 344 342 319 312 321 324
54 146 293 296 186 316 5 65 64 294 339 26 58 25 349 97 145 39 148 174 113 233 24 293 334 254 208 211 187 194 195 189 205 227 220 219 225 232 251 250 226 212 229 263 274 264 267 280 290 296 308 312 310 309 310 311 317 324 320 315 312 317 321 324 321 320 315 309 311 316 323 317 282 300 332 341 350 334 327 312 309 312 318 306 306 303
88 102 154 278 312 24 60 1 173 154 49 347 27 341 3 36 244 104 58 83 142 174 174 202 309 277 266 215 172 199 196 197 189 199 213 225 244 252 240 228 219 222 242 250 251 270 281 293 306 313 312 307 303 301 308 309 311 306 306 306 310 317 314 314 309 312 307 310 314 323 326 322 330 333 337 330 327 321 301 299 297 285 265 285 288 291
81 35 182 317 21 322 234 250 206 172 162 153 151 152 168 100 47 63 267 18 69 93 225 113 249 268 270 269 211 192 199 190 208 196 205 233 254 258 252 235 224 230 247 246 259 262 281 298 307 311 314 309 318 321 320 313 315 319 312 311 312 317 315 315 311 308 305 311 318 322 321 321 319 318 320 321 318 316 310 296 293 284 283 269 272 272
145 145 91 87 177 182 246 321 302 201 114 143 115 143 124 99 101 96 97 282 24 54 113 153 100 281 242 254 255 211 186 195 192 172 215 243 246 251 245 234 241 232 234 242 250 271 280 284 291 293 296 303 308 306 309 316 323 316 311 313 317 320 310 311 304 300 307 316 320 320 319 318 318 321 322 320 313 307 305 303 294 279 277 274 273 267
109 61 54 308 319 302 328 301 19 68 117 75 38 82 109 349 156 167 171 184 130 347 23 333 242 251 286 346 351 312 195 174 206 177 207 247 254 250 240 234 237 245 252 258 272 277 273 293 300 311 320 322 320 319 314 314 316 315 312 312 317 316 312 313 313 314 315 318 319 315 317 322 325 324 317 312 305 301 300 296 294 291 279 262 259 265
64 294 116 50 359 338 341 348 357 335 56 93 172 344 98 81 68 141 107 34 87 227 168 115 252 287 276 351 335 24 36 192 231 245 181 224 255 246 234 234 236 243 263 274 280 286 310 319 323 314 306 306 308 311 313 318 314 315 311 313 321 318 315 314 313 316 312 316 319 320 323 320 318 316 310 306 302 298 296 294 291 288 285 284 271 256
83 175 100 117 139 215 283 307 269 274 246 251 111 89 322 122 132 111 146 16 80 271 123 151 254 256 276 324 344 331 354 267 265 250 247 210 225 234 228 228 235 247 254 270 290 307 302 303 300 303 305 308 313 308 310 314 314 314 314 314 318 322 323 318 316 311 318 327 324 321 317 312 316 315 309 304 301 296 291 289 284 283 281 264 265 266
136 100 102 154 147 191 209 213 248 107 51 301 258 176 207 51 90 96 104 93 234 200 196 232 189 301 275 268 281 246 235 223 231 245 236 237 245 242 225 224 231 239 253 262 271 280 305 312 308 299 297 305 307 307 311 313 314 317 318 317 320 322 321 319 318 319 325 331 327 323 318 317 321 314 308 306 298 293 292 286 280 273 273 267 253 252
74 79 214 149 201 203 196 211 214 191 200 236 161 268 175 156 158 127 159 239 167 85 307 264 198 167 257 252 249 262 263 266 253 243 250 261 248 222 211 222 248 275 275 280 285 286 291 290 291 294 304 314 311 310 315 316 314 316 318 317 316 318 321 319 320 320 325 327 327 320 312 311 314 313 304 301 301 303 305 304 298 291 282 276 270 256
138 149 249 125 257 235 215 232 192 167 213 205 196 174 183 187 149 173 233 189 133 172 215 244 165 191 255 227 220 209 206 211 217 222 220 222 218 204 188 208 235 247 261 274 270 280 282 284 282 298 306 308 309 310 316 319 321 324 323 318 318 319 323 321 317 319 321 320 317 317 311 308 308 313 320 319 318 318 315 308 300 298 294 287 281 274
91 275 215 145 289 320 302 259 229 200 263 268 234 221 198 160 199 199 204 221 188 201 219 194 190 233 247 254 225 230 216 220 243 262 64 186 201 186 190 216 226 240 249 256 268 275 274 268 283 295 302 309 303 311 317 322 323 322 322 319 321 324 322 326 321 320 320 314 312 313 314 310 312 326 328 335 333 326 320 316 317 317 319 312 304 292
115 273 117 74 43 297 298 329 95 262 182 260 287 344 206 181 110 72 110 299 333 302 237 205 265 282 261 227 247 276 312 242 302 213 205 212 194 187 197 218 230 239 251 264 272 273 270 282 293 297 303 301 304 308 313 313 316 317 319 323 325 324 324 324 323 322 319 314 322 322 325 330 341 343 345 339 339 334 328 328 337 340 336 328 325 321
57 258 56 78 15 305 341 17 343 30 34 250 266 287 137 136 172 214 187 204 155 206 115 120 302 266 270 254 252 276 305 183 213 219 221 220 209 195 204 222 232 241 251 255 261 271 280 288 295 296 294 299 302 305 314 321 323 325 327 328 330 328 326 332 330 329 324 324 328 331 341 345 346 345 346 344 344 341 337 346 349 348 342 334 333 330
162 130 169 71 220 264 267 8 329 11 10 341 308 224 188 224 219 212 269 214 216 139 122 163 233 217 230 167 146 233 185 236 249 231 223 235 224 206 212 221 228 239 243 248 252 256 264 267 271 280 292 295 295 302 304 306 320 328 326 330 327 330 342 344 335 334 336 335 340 337 345 350 352 347 350 351 348 340 353 359 353 354 346 340 336 333
114 126 159 180 211 248 306 336 31 18 342 252 232 173 154 183 193 173 235 209 206 170 197 201 216 236 244 192 177 209 198 216 207 222 199 185 197 220 239 241 239 238 246 250 246 251 266 278 280 281 279 276 282 280 284 286 291 322 322 329 331 343 343 345 343 343 342 343 348 347 351 356 354 351 354 348 345 358 9 5 360 351 346 340 338 336
147 125 151 161 136 272 313 354 12 315 244 242 284 241 212 184 165 202 242 233 208 225 274 285 266 242 220 199 199 206 211 245 279 215 219 226 192 192 208 223 233 233 236 238 252 261 259 262 280 291 302 300 306 311 319 317 358 337 342 349 340 341 343 348 346 346 343 349 352 355 356 357 353 348 350 347 0 10 9 8 360 355 350 344 340 342
161 134 156 80 143 70 38 49 56 242 240 269 283 18 190 99 172 144 309 272 208 201 205 234 241 219 215 228 253 249 243 260 279 249 232 225 193 194 198 222 228 218 226 226 220 244 253 258 254 260 277 289 313 304 296 287 330 352 333 334 355 342 340 344 346 344 348 352 352 358 355 353 346 341 351 1 8 9 9 5 4 358 352 348 345 351
145 97 129 201 186 220 198 153 235 300 326 341 31 241 177 169 172 166 224 278 221 197 179 214 240 212 196 237 246 260 219 73 358 299 248 221 218 212 206 220 211 212 214 234 209 230 236 247 255 258 268 293 292 292 295 320 340 348 338 352 350 347 339 343 349 346 346 353 350 354 350 351 350 1 17 18 7 11 8 4 2 360 360 359 359 359
148 162 224 160 257 115 151 330 342 12 316 275 244 271 245 217 153 166 103 293 289 234 204 194 216 203 173 145 151 159 97 64 308 270 250 236 207 211 230 245 263 240 224 233 246 261 272 271 274 281 268 294 305 285 308 333 342 348 353 349 350 351 341 345 345 340 343 351 353 350 352 354 2 19 29 20 15 14 10 8 8 3 2 5 6 9
31 72 133 146 170 74 75 147 216 180 250 216 260 257 258 182 147 117 64 310 270 222 198 181 207 186 165 152 167 143 100 161 241 252 256 218 210 201 210 234 227 219 218 216 213 231 253 262 262 281 317 319 301 315 339 330 340 10 357 349 348 347 345 344 336 340 339 345 351 355 0 357 6 36 35 26 20 15 11 11 10 4 359 12 17 17
65 355 57 46 87 185 130 125 250 202 234 241 221 259 232 182 110 61 3 282 261 233 184 170 192 171 182 164 151 150 148 190 250 254 239 204 192 191 188 212 225 233 239 236 246 231 250 289 322 335 323 320 306 300 320 315 360 11 2 341 348 358 349 333 323 317 330 338 351 2 4 8 9 34 42 30 24 17 14 5 5 12 11 13 23 24
95 354 72 195 182 171 162 259 324 299 272 264 248 223 159 175 73 76 200 239 244 181 186 181 196 174 156 156 161 171 216 198 198 238 296 181 137 203 232 227 211 203 210 218 238 242 250 272 249 253 269 275 291 316 331 326 15 5 346 341 1 355 326 312 309 325 342 340 357 8 8 10 14 11 30 39 28 17 15 11 8 358 3 8 5 14
358 102 327 64 130 195 200 189 235 250 244 182 340 143 172 114 142 203 235 206 153 194 202 191 182 169 166 167 185 203 216 221 213 13 134 173 178 193 190 204 229 266 275 261 246 257 255 278 283 288 287 267 277 314 338 9 26 356 349 353 353 323 311 311 318 328 351 355 1 6 8 11 10 12 13 18 17 19 18 12 8 6 4 353 356 10
201 157 210 187 190 68 59 79 7 344 279 125 123 82 118 117 230 206 185 255 207 181 170 213 188 188 172 190 206 212 234 325 227 205 190 191 173 187 197 195 208 220 226 234 260 246 211 254 265 263 264 301 318 316 342 61 30 347 347 358 318 313 319 316 326 342 1 3 359 354 1 4 9 9 9 10 7 9 13 5 6 5 4 4 1 12
208 116 258 260 180 153 146 148 198 213 201 193 145 182 218 210 192 172 136 169 236 161 181 190 215 187 193 185 202 227 236 274 300 206 173 211 221 226 210 220 230 242 250 246 235 237 197 229 261 272 285 297 309 316 5 70 24 323 341 321 301 327 329 337 342 357 20 11 356 349 348 351 355 354 360 3 358 2 3 5 7 3 6 360 3 5
251 198 172 333 247 147 198 214 245 235 200 210 202 205 219 226 133 183 155 164 171 233 183 172 210 190 196 195 200 189 194 221 205 184 175 197 204 205 206 212 210 214 216 218 228 228 198 218 242 270 299 295 300 302 309 200 93 314 331 305 325 341 348 336 343 24 22 6 355 356 343 343 352 352 354 355 357 1 359 355 6 6 3 6 8 8
228 221 36 341 255 259 251 230 212 292 215 243 249 229 251 285 210 156 163 144 240 192 171 186 197 189 189 182 145 201 207 193 190 197 220 205 203 222 225 239 252 251 248 256 265 247 220 229 248 270 278 305 286 275 264 246 161 321 285 305 309 311 348 348 3 33 14 5 2 352 352 2 1 1 359 360 4 1 2 358 358 356 357 11 8 8
272 120 137 210 281 352 289 319 183 232 249 250 244 244 226 215 215 192 209 217 203 178 202 231 181 180 179 171 186 180 199 182 187 202 197 201 218 226 216 217 226 216 215 221 232 215 219 219 249 259 284 277 278 271 346 295 241 229 271 294 300 310 44 30 32 37 20 9 352 353 3 5 4 359 4 9 3 10 9 10 11 1 1 21 13 7
349 164 321 238 203 199 241 264 273 258 248 248 238 246 245 241 222 207 214 220 204 191 185 191 138 118 140 177 189 169 185 184 183 198 197 207 216 219 221 220 224 233 235 224 242 219 225 218 231 253 256 251 261 306 333 295 284 272 279 283 298 322 39 44 34 38 14 358 349 357 1 1 0 8 2 5 12 11 4 6 8 9 3 359 9 15
200 96 273 207 263 271 297 288 287 315 314 284 240 231 239 237 211 217 218 218 164 162 157 129 177 167 175 191 166 157 158 203 202 192 192 208 221 233 229 223 216 220 227 218 232 204 208 218 226 230 240 251 256 264 276 283 278 283 290 289 320 337 7 335 351 4 13 358 2 356 349 2 3 1 2 359 4 5 13 28 354 358 354 5 138 47
68 258 243 348 298 284 241 261 298 337 293 304 301 264 243 226 204 209 181 185 188 174 170 165 210 143 191 165 168 162 176 198 210 188 203 205 209 219 226 224 220 224 236 234 226 211 221 218 209 228 234 246 253 250 240 253 268 277 274 278 281 141 268 308 342 3 351 346 351 341 353 350 348 355 0 14 5 4 353 9 45 76 46 348 0 30
201 230 167 226 184 253 248 250 218 211 250 249 258 282 271 211 185 194 196 200 205 199 173 160 155 136 198 201 188 176 181 187 204 188 206 215 227 220 216 204 203 221 233 219 210 238 221 225 227 230 252 257 252 252 246 247 257 275 282 262 232 187 211 198 296 316 339 351 338 326 324 331 336 343 345 18 25 13 16 354 347 357 35 43 15 24